User: anonymous
Location: Dover
(39.1580°N, 75.5250°W)
Time: 16:25:59
(UTC-04:00)
Language:

Cosmos 1437 Rocket - Orbit

View from above orbital plane
View from above orbital plane
View from above satellite
View from above satellite

Ground track
Ground track

The orbit data is extracted from the following two-line orbital elements,

1 13771U 83003B   14232.24342515  .00000827  00000-0  53958-4 0  1028
2 13771 081.1552 110.8652 0031174 176.1378 184.0093 15.06423307718197
Epoch (UTC): 20 August 2014 05:50:31
Eccentricity: 0.0031174
inclination: 81.1552°
perigee height: 525 km
apogee height: 569 km
right ascension of ascending node: 110.8652°
argument of perigee: 176.1378°
revolutions per day: 15.06423307
mean anomaly at epoch: 184.0093°
orbit number at epoch: 71819

The dashed part of the orbit path shows where the satellite is in the earth's shadow,  

DLR